Find Starlink 32716

NORAD ID: 63031 Int'l Des: 2025-034 Owner: SPXS Country: US Constellation: starlink operational
LEOCIRCULAR

Current View

Loading 3D Globe...

About Starlink 32716

Starlink 32716 (NORAD 63031) is a starlink constellation satellite (v2 mini) launched Feb 18, 2025 by SPXS of US. It operates in LEO, CIRCULAR orbit with a mass of 730.00 kg.

Upcoming Passes

Passes for default location (London). Set your location on the main map for personalized predictions.

Altitude History

Loading altitude history...

Two-Line Element Set

1 63031U 25034C 26263.02019454 .00005889 00000-0 18530-3 0 9991
2 63031 53.1575 71.6527 0001009 104.2453 255.8662 15.34397351 88896
Epoch: Sep 20, 2026 • Age: 22 hours

Current Status

Altitude 468.4 km
Apogee / Perigee N/A
Velocity 7.64 km/s
Sub-Earth Point 52.15°N, 160.27°E
Launch Date Feb 18, 2025
Age 1.5 years
Type internet

Technical Details

Classification Payload
Mass 730.00 kg
Dry Mass 700.00 kg
Length 0.30 m
Span 29.00 m
Shape ? Box + pan
Manufacturer SPXS
Bus Type Starlink V2M
Phase Status In Orbit
Owner/State SPXS/US

Most Searched